TimePST,TemperatureF,Dew PointF,Humidity,Sea Level PressureIn,VisibilityMPH,Wind Direction,Wind SpeedMPH,Gust SpeedMPH,PrecipitationIn,Events,Conditions,WindDirDegrees,DateUTC
12:53 AM,50.0,48.0,93,30.17,7.0,Calm,Calm,-,N/A,,Mostly Cloudy,0,2012-11-04 07:53:00
1:53 AM,48.9,46.9,93,30.18,7.0,Calm,Calm,-,N/A,,Mostly Cloudy,0,2012-11-04 08:53:00
1:53 AM,48.9,46.9,93,30.18,7.0,West,3.5,-,N/A,,Overcast,260,2012-11-04 09:53:00
2:53 AM,48.9,46.0,90,30.18,10.0,SW,3.5,-,N/A,,Overcast,230,2012-11-04 10:53:00
3:53 AM,48.0,46.0,93,30.20,7.0,East,5.8,-,N/A,,Overcast,90,2012-11-04 11:53:00
4:53 AM,48.9,46.0,90,30.20,8.0,Calm,Calm,-,N/A,,Overcast,0,2012-11-04 12:53:00
5:53 AM,46.9,45.0,93,30.22,8.0,North,8.1,-,N/A,,Overcast,360,2012-11-04 13:53:00
6:53 AM,48.9,46.9,93,30.25,6.0,North,5.8,-,N/A,,Overcast,10,2012-11-04 14:53:00
7:53 AM,50.0,46.9,89,30.27,7.0,NNE,5.8,-,N/A,,Mostly Cloudy,20,2012-11-04 15:53:00
8:53 AM,51.1,46.9,86,30.27,10.0,NE,4.6,-,N/A,,Clear,40,2012-11-04 16:53:00
9:53 AM,52.0,46.9,83,30.28,10.0,North,5.8,-,N/A,,Clear,10,2012-11-04 17:53:00
10:53 AM,53.1,48.0,83,30.28,10.0,NE,5.8,-,N/A,,Clear,40,2012-11-04 18:53:00
11:53 AM,54.0,48.0,80,30.28,10.0,North,6.9,-,N/A,,Clear,10,2012-11-04 19:53:00
12:53 PM,55.9,48.9,77,30.27,10.0,North,4.6,-,N/A,,Clear,350,2012-11-04 20:53:00
1:53 PM,55.9,48.9,77,30.27,10.0,North,5.8,-,N/A,,Clear,10,2012-11-04 21:53:00
2:53 PM,57.9,48.9,72,30.27,10.0,Calm,Calm,-,N/A,,Clear,0,2012-11-04 22:53:00
3:53 PM,57.0,50.0,77,30.27,10.0,NNE,3.5,-,N/A,,Clear,30,2012-11-04 23:53:00
4:53 PM,54.0,48.9,83,30.26,10.0,NW,4.6,-,N/A,,Clear,310,2012-11-05 00:53:00
5:53 PM,52.0,48.0,86,30.25,8.0,Calm,Calm,-,N/A,,Clear,0,2012-11-05 01:53:00
6:53 PM,50.0,48.0,93,30.26,10.0,NNE,3.5,-,N/A,,Clear,20,2012-11-05 02:53:00
7:53 PM,50.0,48.0,93,30.25,10.0,NNE,3.5,-,N/A,,Clear,20,2012-11-05 03:53:00
8:53 PM,48.0,46.9,96,30.24,10.0,Calm,Calm,-,N/A,,Clear,0,2012-11-05 04:53:00
9:53 PM,48.0,46.0,93,30.25,8.0,NNE,4.6,-,N/A,,Clear,20,2012-11-05 05:53:00
10:53 PM,48.0,45.0,89,30.23,8.0,NNW,4.6,-,N/A,,Clear,340,2012-11-05 06:53:00